User: anonymous   Login
Location: Unspecified
(0.0000°N, 0.0000°E)
Time: 08:35:17
(UTC+00:00)
Language:

AO-40 - Orbit

View from above orbital plane
View from above orbital plane
View from above satellite
View from above satellite

Ground track
Ground track

The orbit data is extracted from the following two-line orbital elements,

1 26609U 00072B   17264.04957477 -.00000419  00000-0  00000+0 0  9999
2 26609   6.6066 201.9813 7926173 162.2402 262.9892  1.25586185 77547
Epoch (UTC): 21 September 2017 01:11:23
Eccentricity: 0.7926173
inclination: 6.6066°
perigee height: 1147 km
apogee height: 58673 km
right ascension of ascending node: 201.9813°
argument of perigee: 162.2402°
revolutions per day: 1.25586185
mean anomaly at epoch: 262.9892°
orbit number at epoch: 7754

The dashed part of the orbit path shows where the satellite is in the earth's shadow,  

DLR